DW9750 Weather Reports


time (UTC)temp
F
wind
direction
speed
knots
gust
knots
rain 1hr
in
rain 24hr
in
rain mn
in
humidity
%
barometer
mb
20260906231553 78 104 0.0 0.9 0.00 0.23 0.23 93 1009.7
20260906230053 77 104 0.0 1.7 0.00 0.23 0.23 93 1009.6
20260906224548 77 57 0.0 0.0 0.00 0.23 0.23 93 1009.4
20260906223046 78 38 0.0 0.0 0.02 0.23 0.23 94 1009.8
20260906221545 77 60 0.0 1.7 0.06 0.23 0.23 94 1010.1
20260906220044 76 334 0.0 2.6 0.09 0.23 0.23 93 1010.1
20260906214549 75 311 0.9 2.6 0.12 0.23 0.23 92 1010.2
20260906213043 75 285 1.7 3.5 0.12 0.21 0.21 93 1010.7
20260906211545 76 294 0.0 0.0 0.17 0.17 0.17 93 1011.2
20260906210055 76 263 0.0 0.0 0.14 0.14 0.14 92 1011.4
20260906204540 75 263 0.0 1.7 0.11 0.11 0.11 90 1011.7
20260906203040 75 275 0.0 6.1 0.09 0.09 0.09 87 1011.9
20260906201553 77 300 0.0 3.5 0.00 0.00 0.00 84 1011.7
20260906200036 79 289 0.9 7.0 0.00 0.00 0.00 79 1011.7
20260906194540 81 318 1.7 7.8 0.00 0.00 0.00 73 1011.4
20260906193035 86 8 1.7 7.8 0.00 0.00 0.00 62 1011.0
20260906191536 91 348 2.6 7.8 0.00 0.00 0.00 54 1010.7
20260906190032 93 113 1.7 7.0 0.00 0.00 0.00 48 1010.6
20260906184542 92 182 1.7 5.2 0.00 0.00 0.00 50 1010.8
20260906183035 92 208 2.6 7.0 0.00 0.00 0.00 52 1011.0
20260906181550 90 303 2.6 5.2 0.00 0.00 0.00 51 1011.2
20260906180029 91 81 1.7 6.1 0.00 0.00 0.00 51 1011.4
20260906174528 92 259 0.9 6.1 0.00 0.00 0.00 50 1011.8
20260906173028 93 177 3.5 7.0 0.00 0.00 0.00 49 1012.1
20260906171529 92 90 1.7 6.1 0.00 0.00 0.00 49 1012.2
20260906170022 89 187 1.7 7.0 0.00 0.00 0.00 56 1012.3
20260906164519 89 270 2.6 7.0 0.00 0.00 0.00 55 1012.4
20260906163022 89 227 1.7 4.3 0.00 0.00 0.00 56 1012.5
20260906161512 88 33 2.6 4.3 0.00 0.00 0.00 57 1012.5
20260906160009 87 106 0.9 6.1 0.00 0.00 0.00 60 1012.5
20260906154506 86 209 1.7 4.3 0.00 0.00 0.00 63 1012.4
20260906153003 84 124 1.7 4.3 0.00 0.00 0.00 65 1012.3
20260906151600 83 336 1.7 3.5 0.00 0.00 0.00 71 1012.2
20260906150058 83 73 0.9 4.3 0.00 0.00 0.00 72 1012.3
20260906144558 82 315 0.9 3.5 0.00 0.00 0.00 73 1012.3
20260906143056 81 156 1.7 3.5 0.00 0.00 0.00 75 1012.3
20260906141553 80 56 0.9 5.2 0.00 0.00 0.00 78 1012.3
20260906134603 79 123 0.0 3.5 0.00 0.00 0.00 79 1012.1
20260906133049 77 97 0.9 3.5 0.00 0.00 0.00 81 1011.9
20260906131547 75 118 0.0 1.7 0.00 0.00 0.00 83 1011.9
20260906130052 74 30 0.0 0.0 0.00 0.00 0.00 85 1011.7
20260906124545 73 29 0.0 0.0 0.00 0.00 0.00 85 1011.4
20260906123044 72 145 0.0 0.0 0.00 0.00 0.00 85 1011.1
20260906121548 72 145 0.0 0.0 0.00 0.00 0.00 85 1011.1
20260906120042 73 145 0.0 0.0 0.00 0.00 0.00 84 1010.9
20260906114545 73 145 0.0 0.0 0.00 0.00 0.00 85 1010.8
20260906113043 73 145 0.0 0.0 0.00 0.00 0.00 85 1010.5
20260906111540 73 77 0.0 0.0 0.00 0.00 0.00 85 1010.2
20260906110038 73 77 0.0 0.0 0.00 0.00 0.00 83 1010.2
20260906104539 73 77 0.0 0.0 0.00 0.00 0.00 83 1010.2
20260906103037 73 77 0.0 0.0 0.00 0.00 0.00 83 1010.1
20260906101534 74 77 0.0 0.0 0.00 0.00 0.00 83 1010.0
20260906100033 74 77 0.0 0.0 0.00 0.00 0.00 81 1009.9
20260906094536 74 77 0.0 0.0 0.00 0.00 0.00 81 1009.9
20260906093032 75 77 0.0 1.7 0.00 0.00 0.00 80 1010.0
20260906091534 75 73 0.9 1.7 0.00 0.00 0.00 80 1010.2
20260906090026 75 77 0.0 1.7 0.00 0.00 0.00 78 1010.2
20260906084530 76 83 0.0 0.0 0.00 0.00 0.00 77 1010.3
20260906083022 77 83 0.0 0.0 0.00 0.00 0.00 75 1010.2
20260906081523 77 83 0.0 2.6 0.00 0.00 0.00 74 1010.4
20260906080016 78 116 0.0 1.7 0.00 0.00 0.00 73 1010.6
20260906074513 78 194 0.0 3.5 0.00 0.00 0.00 72 1010.8
20260906073011 78 139 0.0 0.9 0.00 0.00 0.00 72 1011.1
20260906071508 79 192 0.0 0.9 0.00 0.00 0.00 71 1011.5
20260906070006 79 134 0.0 2.6 0.00 0.00 0.00 70 1011.2
20260906064511 79 87 0.0 3.5 0.00 0.00 0.00 70 1011.2
20260906063004 80 158 0.0 0.0 0.00 0.00 0.00 72 1011.3
20260906061502 80 164 0.0 1.7 0.00 0.00 0.00 72 1011.4
20260906060150 80 105 0.0 2.6 0.00 0.00 0.00 71 1011.6
20260906054611 81 114 0.0 0.9 0.00 0.00 0.00 70 1011.5
20260906053057 81 115 0.9 3.5 0.00 0.00 0.00 69 1011.7
20260906051553 81 94 1.7 4.3 0.00 0.00 0.00 68 1011.7
20260906050105 81 79 1.7 5.2 0.00 0.00 0.00 66 1011.5
20260906044549 81 104 0.9 4.3 0.00 0.00 0.00 64 1011.4
20260906043049 81 73 0.9 2.6 0.00 0.00 0.00 62 1011.5
20260906041547 82 109 1.7 4.3 0.00 0.00 0.00 61 1011.5
20260906040046 83 126 0.9 5.2 0.00 0.00 0.00 59 1011.2
20260906034556 82 104 1.7 6.1 0.00 0.00 0.00 59 1011.0
20260906033045 82 115 0.0 3.5 0.00 0.00 0.00 58 1010.9
20260906031608 81 72 1.7 4.3 0.00 0.00 0.00 59 1010.5
20260906030045 81 66 0.0 0.9 0.00 0.00 0.00 59 1010.2
20260906024553 82 66 0.0 0.0 0.00 0.00 0.00 58 1010.0
20260906023104 83 66 0.0 0.0 0.00 0.00 0.00 56 1009.6
20260906021541 83 66 0.0 0.0 0.00 0.00 0.00 54 1009.3
20260906020049 84 66 0.0 0.0 0.00 0.00 0.00 53 1009.2
20260906014541 85 69 0.0 0.0 0.00 0.00 0.00 52 1009.1
20260906013041 86 75 0.9 2.6 0.00 0.00 0.00 50 1009.0
20260906011540 87 99 1.7 2.6 0.00 0.00 0.00 50 1008.9
20260906010039 88 92 0.9 3.5 0.00 0.00 0.00 49 1008.8
20260906004546 89 76 1.7 4.3 0.00 0.00 0.00 48 1008.7
20260906003047 91 140 1.7 7.8 0.00 0.00 0.00 47 1008.7
20260906001543 91 68 1.7 7.8 0.00 0.00 0.00 46 1008.6
20260906000036 92 71 4.3 8.7 0.00 0.00 0.00 46 1008.5
20260905234536 93 92 1.7 5.2 0.00 0.00 0.00 45 1008.5
20260905233043 93 95 2.6 7.0 0.00 0.00 0.00 44 1008.6